<?xml version='1.0' encoding='UTF-8'?>
<gpx xmlns="http://www.topografix.com/GPX/1/1" creator="www.balnam.be" version="1.1" xmlns:xsi="http://www.w3.org/2001/XMLSchema-instance" xsi:schemaLocation="http://www.topografix.com/GPX/1/1 http://www.topografix.com/GPX/1/1/gpx.xsd">
<trk>
<name>hllhe10</name>
<cmt>r</cmt>
<desc>Haine-Saint-Pierre Chemin n°10 Rue Haute / Rue des Chauxfours</desc>
<link href="https://chemins.be/hainesaintpierre/chemin/10"/><trkseg>
<trkpt lat="50.452917" lon="4.202586"><time>2026-05-02T18:09:25Z</time></trkpt>
<trkpt lat="50.452188" lon="4.202053"><time>2026-05-02T18:19:25Z</time></trkpt>
<trkpt lat="50.451334" lon="4.201620"><time>2026-05-02T18:29:25Z</time></trkpt>
<trkpt lat="50.449902" lon="4.201748"><time>2026-05-02T18:39:25Z</time></trkpt>
</trkseg></trk>
<trk>
<name>hllhe10</name>
<cmt>v</cmt>
<desc>Haine-Saint-Pierre Chemin n°10 Rue Haute / Rue des Chauxfours</desc>
<link href="https://chemins.be/hainesaintpierre/chemin/10"/><trkseg>
<trkpt lat="50.449902" lon="4.201748"><time>2026-05-02T18:39:25Z</time></trkpt>
<trkpt lat="50.447971" lon="4.202692"><time>2026-05-02T18:49:25Z</time></trkpt>
<trkpt lat="50.445839" lon="4.205267"><time>2026-05-02T18:59:25Z</time></trkpt>
<trkpt lat="50.442606" lon="4.206085"><time>2026-05-02T19:09:25Z</time></trkpt>
<trkpt lat="50.441831" lon="4.206597"><time>2026-05-02T19:19:25Z</time></trkpt>
</trkseg>
</trk>
<trk>
<name>hllhe12</name>
<cmt>q</cmt>
<desc>Haine-Saint-Pierre Chemin n°12 </desc>
<link href="https://chemins.be/hainesaintpierre/chemin/12"/><trkseg>
<trkpt lat="50.454615" lon="4.203317"><time>2026-05-02T18:09:25Z</time></trkpt>
<trkpt lat="50.454166" lon="4.205179"><time>2026-05-02T18:19:25Z</time></trkpt>
</trkseg></trk>
<trk>
<name>hllhe12</name>
<cmt>v</cmt>
<desc>Haine-Saint-Pierre Chemin n°12 </desc>
<link href="https://chemins.be/hainesaintpierre/chemin/12"/><trkseg>
<trkpt lat="50.454166" lon="4.205179"><time>2026-05-02T18:19:25Z</time></trkpt>
<trkpt lat="50.454021" lon="4.205784"><time>2026-05-02T18:29:25Z</time></trkpt>
<trkpt lat="50.453829" lon="4.207061"><time>2026-05-02T18:39:25Z</time></trkpt>
</trkseg></trk>
<trk>
<name>hllhe12</name>
<cmt>q</cmt>
<desc>Haine-Saint-Pierre Chemin n°12 </desc>
<link href="https://chemins.be/hainesaintpierre/chemin/12"/><trkseg>
<trkpt lat="50.453829" lon="4.207061"><time>2026-05-02T18:39:25Z</time></trkpt>
<trkpt lat="50.453549" lon="4.207554"><time>2026-05-02T18:49:25Z</time></trkpt>
</trkseg>
</trk>
<trk>
<name>hllhe12bis</name>
<cmt>v</cmt>
<desc>Haine-Saint-Pierre Chemin n°12bis </desc>
<link href="https://chemins.be/hainesaintpierre/chemin/12bis"/><trkseg>
<trkpt lat="50.455066" lon="4.206374"><time>2026-05-02T18:09:25Z</time></trkpt>
<trkpt lat="50.454185" lon="4.205258"><time>2026-05-02T18:19:25Z</time></trkpt>
</trkseg>
</trk>
<trk>
<name>hllhe14</name>
<cmt>r</cmt>
<desc>Haine-Saint-Pierre Sentier n°14 Rue Sous l'Haye</desc>
<link href="https://chemins.be/hainesaintpierre/sentier/14"/><trkseg>
<trkpt lat="50.477178" lon="4.227483"><time>2026-05-02T18:09:25Z</time></trkpt>
<trkpt lat="50.476758" lon="4.224230"><time>2026-05-02T18:19:25Z</time></trkpt>
<trkpt lat="50.476124" lon="4.222608"><time>2026-05-02T18:29:25Z</time></trkpt>
<trkpt lat="50.475135" lon="4.220617"><time>2026-05-02T18:39:25Z</time></trkpt>
<trkpt lat="50.475124" lon="4.220265"><time>2026-05-02T18:49:25Z</time></trkpt>
</trkseg>
</trk>
<trk>
<name>hllhe15</name>
<cmt>q</cmt>
<desc>Haine-Saint-Pierre Sentier n°15 </desc>
<link href="https://chemins.be/hainesaintpierre/sentier/15"/><trkseg>
<trkpt lat="50.472699" lon="4.216497"><time>2026-05-02T18:09:25Z</time></trkpt>
<trkpt lat="50.471689" lon="4.218557"><time>2026-05-02T18:19:25Z</time></trkpt>
<trkpt lat="50.470662" lon="4.219141"><time>2026-05-02T18:29:25Z</time></trkpt>
<trkpt lat="50.470192" lon="4.219587"><time>2026-05-02T18:39:25Z</time></trkpt>
<trkpt lat="50.470022" lon="4.220179"><time>2026-05-02T18:49:25Z</time></trkpt>
</trkseg>
</trk>
<trk>
<name>hllhe17</name>
<cmt>r</cmt>
<desc>Haine-Saint-Pierre Sentier n°17 </desc>
<link href="https://chemins.be/hainesaintpierre/sentier/17"/><trkseg>
<trkpt lat="50.468618" lon="4.210532"><time>2026-05-02T18:09:25Z</time></trkpt>
<trkpt lat="50.468373" lon="4.211828"><time>2026-05-02T18:19:25Z</time></trkpt>
<trkpt lat="50.468050" lon="4.212171"><time>2026-05-02T18:29:25Z</time></trkpt>
<trkpt lat="50.467782" lon="4.213201"><time>2026-05-02T18:39:25Z</time></trkpt>
<trkpt lat="50.466739" lon="4.214428"><time>2026-05-02T18:49:25Z</time></trkpt>
</trkseg></trk>
<trk>
<name>hllhe17</name>
<cmt>v</cmt>
<desc>Haine-Saint-Pierre Sentier n°17 </desc>
<link href="https://chemins.be/hainesaintpierre/sentier/17"/><trkseg>
<trkpt lat="50.466739" lon="4.214428"><time>2026-05-02T18:49:25Z</time></trkpt>
<trkpt lat="50.466357" lon="4.214737"><time>2026-05-02T18:59:25Z</time></trkpt>
<trkpt lat="50.466285" lon="4.214765"><time>2026-05-02T19:09:25Z</time></trkpt>
<trkpt lat="50.465915" lon="4.215081"><time>2026-05-02T19:19:25Z</time></trkpt>
<trkpt lat="50.465120" lon="4.215789"><time>2026-05-02T19:29:25Z</time></trkpt>
</trkseg>
</trk>
<trk>
<name>hllhe18</name>
<cmt>q</cmt>
<desc>Haine-Saint-Pierre Sentier n°18 Rue de l'Alliance</desc>
<link href="https://chemins.be/hainesaintpierre/sentier/18"/><trkseg>
<trkpt lat="50.463023" lon="4.215111"><time>2026-05-02T18:09:25Z</time></trkpt>
<trkpt lat="50.461381" lon="4.211366"><time>2026-05-02T18:19:25Z</time></trkpt>
</trkseg></trk>
<trk>
<name>hllhe18</name>
<cmt>s</cmt>
<desc>Haine-Saint-Pierre Sentier n°18 Rue de l'Alliance</desc>
<link href="https://chemins.be/hainesaintpierre/sentier/18"/><trkseg>
<trkpt lat="50.461381" lon="4.211366"><time>2026-05-02T18:19:25Z</time></trkpt>
<trkpt lat="50.460750" lon="4.209927"><time>2026-05-02T18:29:25Z</time></trkpt>
<trkpt lat="50.459854" lon="4.206528"><time>2026-05-02T18:39:25Z</time></trkpt>
</trkseg></trk>
<trk>
<name>hllhe18</name>
<cmt>r</cmt>
<desc>Haine-Saint-Pierre Sentier n°18 Rue de l'Alliance</desc>
<link href="https://chemins.be/hainesaintpierre/sentier/18"/><trkseg>
<trkpt lat="50.459854" lon="4.206528"><time>2026-05-02T18:39:25Z</time></trkpt>
<trkpt lat="50.458848" lon="4.204931"><time>2026-05-02T18:49:25Z</time></trkpt>
<trkpt lat="50.457417" lon="4.203472"><time>2026-05-02T18:59:25Z</time></trkpt>
<trkpt lat="50.454904" lon="4.201442"><time>2026-05-02T19:09:25Z</time></trkpt>
<trkpt lat="50.454172" lon="4.201236"><time>2026-05-02T19:19:25Z</time></trkpt>
</trkseg>
</trk>
<trk>
<name>hllhe19</name>
<cmt>q</cmt>
<desc>Haine-Saint-Pierre Sentier n°19 </desc>
<link href="https://chemins.be/hainesaintpierre/sentier/19"/><trkseg>
<trkpt lat="50.461760" lon="4.200028"><time>2026-05-02T18:09:25Z</time></trkpt>
<trkpt lat="50.461623" lon="4.200398"><time>2026-05-02T18:19:25Z</time></trkpt>
<trkpt lat="50.461736" lon="4.200672"><time>2026-05-02T18:29:25Z</time></trkpt>
<trkpt lat="50.462190" lon="4.201584"><time>2026-05-02T18:39:25Z</time></trkpt>
<trkpt lat="50.462597" lon="4.202425"><time>2026-05-02T18:49:25Z</time></trkpt>
</trkseg></trk>
<trk>
<name>hllhe19</name>
<cmt>s</cmt>
<desc>Haine-Saint-Pierre Sentier n°19 </desc>
<link href="https://chemins.be/hainesaintpierre/sentier/19"/><trkseg>
<trkpt lat="50.462597" lon="4.202425"><time>2026-05-02T18:49:25Z</time></trkpt>
<trkpt lat="50.462756" lon="4.204161"><time>2026-05-02T18:59:25Z</time></trkpt>
</trkseg></trk>
<trk>
<name>hllhe19</name>
<cmt>q</cmt>
<desc>Haine-Saint-Pierre Sentier n°19 </desc>
<link href="https://chemins.be/hainesaintpierre/sentier/19"/><trkseg>
<trkpt lat="50.462756" lon="4.204161"><time>2026-05-02T18:59:25Z</time></trkpt>
<trkpt lat="50.462881" lon="4.205515"><time>2026-05-02T19:09:25Z</time></trkpt>
<trkpt lat="50.462826" lon="4.207094"><time>2026-05-02T19:19:25Z</time></trkpt>
<trkpt lat="50.462936" lon="4.208382"><time>2026-05-02T19:29:25Z</time></trkpt>
</trkseg></trk>
<trk>
<name>hllhe19</name>
<cmt>s</cmt>
<desc>Haine-Saint-Pierre Sentier n°19 </desc>
<link href="https://chemins.be/hainesaintpierre/sentier/19"/><trkseg>
<trkpt lat="50.462936" lon="4.208382"><time>2026-05-02T19:29:25Z</time></trkpt>
<trkpt lat="50.463449" lon="4.214373"><time>2026-05-02T19:39:25Z</time></trkpt>
</trkseg></trk>
<trk>
<name>hllhe19</name>
<cmt>q</cmt>
<desc>Haine-Saint-Pierre Sentier n°19 </desc>
<link href="https://chemins.be/hainesaintpierre/sentier/19"/><trkseg>
<trkpt lat="50.463449" lon="4.214373"><time>2026-05-02T19:39:25Z</time></trkpt>
<trkpt lat="50.463514" lon="4.216141"><time>2026-05-02T19:49:25Z</time></trkpt>
</trkseg>
</trk>
<trk>
<name>hllhe2</name>
<cmt>v</cmt>
<desc>Haine-Saint-Pierre Chemin n°2 Chemin de Morveau</desc>
<link href="https://chemins.be/hainesaintpierre/chemin/2"/><trkseg>
<trkpt lat="50.446437" lon="4.210197"><time>2026-05-02T18:09:25Z</time></trkpt>
<trkpt lat="50.446075" lon="4.208086"><time>2026-05-02T18:19:25Z</time></trkpt>
<trkpt lat="50.445828" lon="4.205215"><time>2026-05-02T18:29:25Z</time></trkpt>
<trkpt lat="50.445535" lon="4.201527"><time>2026-05-02T18:39:25Z</time></trkpt>
<trkpt lat="50.444551" lon="4.198490"><time>2026-05-02T18:49:25Z</time></trkpt>
<trkpt lat="50.443420" lon="4.194172"><time>2026-05-02T18:59:25Z</time></trkpt>
<trkpt lat="50.442373" lon="4.191487"><time>2026-05-02T19:09:25Z</time></trkpt>
<trkpt lat="50.441143" lon="4.186381"><time>2026-05-02T19:19:25Z</time></trkpt>
<trkpt lat="50.441069" lon="4.184917"><time>2026-05-02T19:29:25Z</time></trkpt>
<trkpt lat="50.440400" lon="4.182836"><time>2026-05-02T19:39:25Z</time></trkpt>
</trkseg>
</trk>
<trk>
<name>hllhe20</name>
<cmt>s</cmt>
<desc>Haine-Saint-Pierre Sentier n°20 </desc>
<link href="https://chemins.be/hainesaintpierre/sentier/20"/><trkseg>
<trkpt lat="50.456555" lon="4.202812"><time>2026-05-02T18:09:25Z</time></trkpt>
<trkpt lat="50.457873" lon="4.201597"><time>2026-05-02T18:19:25Z</time></trkpt>
</trkseg></trk>
<trk>
<name>hllhe20</name>
<cmt>q</cmt>
<desc>Haine-Saint-Pierre Sentier n°20 </desc>
<link href="https://chemins.be/hainesaintpierre/sentier/20"/><trkseg>
<trkpt lat="50.457873" lon="4.201597"><time>2026-05-02T18:19:25Z</time></trkpt>
<trkpt lat="50.458908" lon="4.202075"><time>2026-05-02T18:29:25Z</time></trkpt>
<trkpt lat="50.459546" lon="4.203239"><time>2026-05-02T18:39:25Z</time></trkpt>
</trkseg>
</trk>
<trk>
<name>hllhe21</name>
<cmt>s</cmt>
<desc>Haine-Saint-Pierre Sentier n°21 </desc>
<link href="https://chemins.be/hainesaintpierre/sentier/21"/><trkseg>
<trkpt lat="50.461084" lon="4.198977"><time>2026-05-02T18:09:25Z</time></trkpt>
<trkpt lat="50.459490" lon="4.199245"><time>2026-05-02T18:19:25Z</time></trkpt>
<trkpt lat="50.457805" lon="4.199529"><time>2026-05-02T18:29:25Z</time></trkpt>
<trkpt lat="50.456876" lon="4.199685"><time>2026-05-02T18:39:25Z</time></trkpt>
</trkseg></trk>
<trk>
<name>hllhe21</name>
<cmt>q</cmt>
<desc>Haine-Saint-Pierre Sentier n°21 </desc>
<link href="https://chemins.be/hainesaintpierre/sentier/21"/><trkseg>
<trkpt lat="50.456876" lon="4.199685"><time>2026-05-02T18:39:25Z</time></trkpt>
<trkpt lat="50.455701" lon="4.200481"><time>2026-05-02T18:49:25Z</time></trkpt>
<trkpt lat="50.455090" lon="4.200524"><time>2026-05-02T18:59:25Z</time></trkpt>
<trkpt lat="50.454891" lon="4.201442"><time>2026-05-02T19:09:25Z</time></trkpt>
</trkseg>
</trk>
<trk>
<name>hllhe22</name>
<cmt>s</cmt>
<desc>Haine-Saint-Pierre Sentier n°22 </desc>
<link href="https://chemins.be/hainesaintpierre/sentier/22"/><trkseg>
<trkpt lat="50.460941" lon="4.207026"><time>2026-05-02T18:09:25Z</time></trkpt>
<trkpt lat="50.462067" lon="4.206691"><time>2026-05-02T18:19:25Z</time></trkpt>
</trkseg>
</trk>
<trk>
<name>hllhe23</name>
<cmt>s</cmt>
<desc>Haine-Saint-Pierre Sentier n°23 </desc>
<link href="https://chemins.be/hainesaintpierre/sentier/23"/><trkseg>
<trkpt lat="50.458720" lon="4.204853"><time>2026-05-02T18:09:25Z</time></trkpt>
<trkpt lat="50.457900" lon="4.201836"><time>2026-05-02T18:19:25Z</time></trkpt>
</trkseg></trk>
<trk>
<name>hllhe23</name>
<cmt>q</cmt>
<desc>Haine-Saint-Pierre Sentier n°23 </desc>
<link href="https://chemins.be/hainesaintpierre/sentier/23"/><trkseg>
<trkpt lat="50.457900" lon="4.201836"><time>2026-05-02T18:19:25Z</time></trkpt>
<trkpt lat="50.457893" lon="4.199529"><time>2026-05-02T18:29:25Z</time></trkpt>
</trkseg>
</trk>
<trk>
<name>hllhe24</name>
<cmt>r</cmt>
<desc>Haine-Saint-Pierre Sentier n°24 Avenue V. Beaufort</desc>
<link href="https://chemins.be/hainesaintpierre/sentier/24"/><trkseg>
<trkpt lat="50.455756" lon="4.203736"><time>2026-05-02T18:09:25Z</time></trkpt>
<trkpt lat="50.455352" lon="4.204976"><time>2026-05-02T18:19:25Z</time></trkpt>
<trkpt lat="50.455059" lon="4.206388"><time>2026-05-02T18:29:25Z</time></trkpt>
</trkseg>
</trk>
<trk>
<name>hllhe25</name>
<cmt>q</cmt>
<desc>Haine-Saint-Pierre Sentier n°25 </desc>
<link href="https://chemins.be/hainesaintpierre/sentier/25"/><trkseg>
<trkpt lat="50.456063" lon="4.211274"><time>2026-05-02T18:09:25Z</time></trkpt>
<trkpt lat="50.458468" lon="4.216664"><time>2026-05-02T18:19:25Z</time></trkpt>
<trkpt lat="50.459047" lon="4.218553"><time>2026-05-02T18:29:25Z</time></trkpt>
</trkseg>
</trk>
<trk>
<name>hllhe26</name>
<cmt>q</cmt>
<desc>Haine-Saint-Pierre Sentier n°26 </desc>
<link href="https://chemins.be/hainesaintpierre/sentier/26"/><trkseg>
<trkpt lat="50.453542" lon="4.207587"><time>2026-05-02T18:09:25Z</time></trkpt>
<trkpt lat="50.452796" lon="4.209300"><time>2026-05-02T18:19:25Z</time></trkpt>
<trkpt lat="50.452151" lon="4.212373"><time>2026-05-02T18:29:25Z</time></trkpt>
<trkpt lat="50.452402" lon="4.216132"><time>2026-05-02T18:39:25Z</time></trkpt>
</trkseg>
</trk>
<trk>
<name>hllhe27</name>
<cmt>q</cmt>
<desc>Haine-Saint-Pierre Sentier n°27 </desc>
<link href="https://chemins.be/hainesaintpierre/sentier/27"/><trkseg>
<trkpt lat="50.452190" lon="4.202131"><time>2026-05-02T18:09:25Z</time></trkpt>
<trkpt lat="50.450646" lon="4.203011"><time>2026-05-02T18:19:25Z</time></trkpt>
<trkpt lat="50.448884" lon="4.205929"><time>2026-05-02T18:29:25Z</time></trkpt>
</trkseg>
</trk>
<trk>
<name>hllhe28</name>
<cmt>q</cmt>
<desc>Haine-Saint-Pierre Sentier n°28 Rue Haute</desc>
<link href="https://chemins.be/hainesaintpierre/sentier/28"/><trkseg>
<trkpt lat="50.452883" lon="4.202932"><time>2026-05-02T18:09:25Z</time></trkpt>
<trkpt lat="50.452673" lon="4.202666"><time>2026-05-02T18:19:25Z</time></trkpt>
<trkpt lat="50.452616" lon="4.202400"><time>2026-05-02T18:29:25Z</time></trkpt>
</trkseg></trk>
<trk>
<name>hllhe28</name>
<cmt>r</cmt>
<desc>Haine-Saint-Pierre Sentier n°28 Rue Haute</desc>
<link href="https://chemins.be/hainesaintpierre/sentier/28"/><trkseg>
<trkpt lat="50.452616" lon="4.202400"><time>2026-05-02T18:29:25Z</time></trkpt>
<trkpt lat="50.452223" lon="4.202081"><time>2026-05-02T18:39:25Z</time></trkpt>
</trkseg></trk>
<trk>
<name>hllhe28</name>
<cmt>q</cmt>
<desc>Haine-Saint-Pierre Sentier n°28 Rue Haute</desc>
<link href="https://chemins.be/hainesaintpierre/sentier/28"/><trkseg>
<trkpt lat="50.452223" lon="4.202081"><time>2026-05-02T18:39:25Z</time></trkpt>
<trkpt lat="50.450817" lon="4.197373"><time>2026-05-02T18:49:25Z</time></trkpt>
</trkseg>
</trk>
<trk>
<name>hllhe29</name>
<cmt>s</cmt>
<desc>Haine-Saint-Pierre Sentier n°29 </desc>
<link href="https://chemins.be/hainesaintpierre/sentier/29"/><trkseg>
<trkpt lat="50.458454" lon="4.205462"><time>2026-05-02T18:09:25Z</time></trkpt>
<trkpt lat="50.459328" lon="4.205613"><time>2026-05-02T18:19:25Z</time></trkpt>
</trkseg>
</trk>
<trk>
<name>hllhe3</name>
<cmt>r</cmt>
<desc>Haine-Saint-Pierre Chemin n°3 Rue de la Baraque / Chemins des Oseraies</desc>
<link href="https://chemins.be/hainesaintpierre/chemin/3"/><trkseg>
<trkpt lat="50.450869" lon="4.197087"><time>2026-05-02T18:09:25Z</time></trkpt>
<trkpt lat="50.450270" lon="4.199638"><time>2026-05-02T18:19:25Z</time></trkpt>
<trkpt lat="50.449850" lon="4.201597"><time>2026-05-02T18:29:25Z</time></trkpt>
</trkseg></trk>
<trk>
<name>hllhe3</name>
<cmt>v</cmt>
<desc>Haine-Saint-Pierre Chemin n°3 Rue de la Baraque / Chemins des Oseraies</desc>
<link href="https://chemins.be/hainesaintpierre/chemin/3"/><trkseg>
<trkpt lat="50.449850" lon="4.201597"><time>2026-05-02T18:29:25Z</time></trkpt>
<trkpt lat="50.449681" lon="4.202935"><time>2026-05-02T18:39:25Z</time></trkpt>
<trkpt lat="50.449117" lon="4.204458"><time>2026-05-02T18:49:25Z</time></trkpt>
<trkpt lat="50.448895" lon="4.206359"><time>2026-05-02T18:59:25Z</time></trkpt>
<trkpt lat="50.448701" lon="4.209288"><time>2026-05-02T19:09:25Z</time></trkpt>
<trkpt lat="50.448399" lon="4.211922"><time>2026-05-02T19:19:25Z</time></trkpt>
</trkseg>
</trk>
<trk>
<name>hllhe30</name>
<cmt>q</cmt>
<desc>Haine-Saint-Pierre Sentier n°30 </desc>
<link href="https://chemins.be/hainesaintpierre/sentier/30"/><trkseg>
<trkpt lat="50.453556" lon="4.197931"><time>2026-05-02T18:09:25Z</time></trkpt>
<trkpt lat="50.453324" lon="4.197062"><time>2026-05-02T18:19:25Z</time></trkpt>
<trkpt lat="50.453399" lon="4.196450"><time>2026-05-02T18:29:25Z</time></trkpt>
<trkpt lat="50.453071" lon="4.196064"><time>2026-05-02T18:39:25Z</time></trkpt>
<trkpt lat="50.453057" lon="4.195066"><time>2026-05-02T18:49:25Z</time></trkpt>
</trkseg>
</trk>
<trk>
<name>hllhe31</name>
<cmt>q</cmt>
<desc>Haine-Saint-Pierre Sentier n°31 </desc>
<link href="https://chemins.be/hainesaintpierre/sentier/31"/><trkseg>
<trkpt lat="50.441177" lon="4.186499"><time>2026-05-02T18:09:25Z</time></trkpt>
<trkpt lat="50.446595" lon="4.187872"><time>2026-05-02T18:19:25Z</time></trkpt>
</trkseg>
</trk>
<trk>
<name>hllhe32</name>
<cmt>q</cmt>
<desc>Haine-Saint-Pierre Sentier n°32 </desc>
<link href="https://chemins.be/hainesaintpierre/sentier/32"/><trkseg>
<trkpt lat="50.451193" lon="4.201804"><time>2026-05-02T18:09:25Z</time></trkpt>
<trkpt lat="50.451862" lon="4.201997"><time>2026-05-02T18:19:25Z</time></trkpt>
</trkseg>
</trk>
<trk>
<name>hllhe35</name>
<cmt>q</cmt>
<desc>Haine-Saint-Pierre Chemin n°35 </desc>
<link href="https://chemins.be/hainesaintpierre/chemin/35"/><trkseg>
<trkpt lat="50.442329" lon="4.207408"><time>2026-05-02T18:09:25Z</time></trkpt>
<trkpt lat="50.441837" lon="4.206641"><time>2026-05-02T18:19:25Z</time></trkpt>
</trkseg>
</trk>
<trk>
<name>hllhe5</name>
<cmt>q</cmt>
<desc>Haine-Saint-Pierre Chemin n°5 </desc>
<link href="https://chemins.be/hainesaintpierre/chemin/5"/><trkseg>
<trkpt lat="50.463881" lon="4.208253"><time>2026-05-02T18:09:25Z</time></trkpt>
<trkpt lat="50.462304" lon="4.206880"><time>2026-05-02T18:19:25Z</time></trkpt>
</trkseg></trk>
<trk>
<name>hllhe5</name>
<cmt>s</cmt>
<desc>Haine-Saint-Pierre Chemin n°5 </desc>
<link href="https://chemins.be/hainesaintpierre/chemin/5"/><trkseg>
<trkpt lat="50.462304" lon="4.206880"><time>2026-05-02T18:19:25Z</time></trkpt>
<trkpt lat="50.461772" lon="4.206416"><time>2026-05-02T18:29:25Z</time></trkpt>
</trkseg>
</trk>
<trk>
<name>hllhe9</name>
<cmt>v</cmt>
<desc>Haine-Saint-Pierre Chemin n°9 </desc>
<link href="https://chemins.be/hainesaintpierre/chemin/9"/><trkseg>
<trkpt lat="50.439184" lon="4.197052"><time>2026-05-02T18:09:25Z</time></trkpt>
<trkpt lat="50.442857" lon="4.192597"><time>2026-05-02T18:19:25Z</time></trkpt>
</trkseg>
</trk>
<trk>
<name>hllhei1</name>
<cmt>v</cmt>
<desc>Haine-Saint-Pierre Sentier n°i1 </desc>
<link href="https://chemins.be/hainesaintpierre/sentier/i1"/><trkseg>
<trkpt lat="50.459689" lon="4.203689"><time>2026-05-02T18:09:25Z</time></trkpt>
<trkpt lat="50.459267" lon="4.204324"><time>2026-05-02T18:19:25Z</time></trkpt>
<trkpt lat="50.458962" lon="4.204818"><time>2026-05-02T18:29:25Z</time></trkpt>
<trkpt lat="50.458872" lon="4.205015"><time>2026-05-02T18:39:25Z</time></trkpt>
</trkseg>
</trk>
<trk>
<name>hllhei2</name>
<cmt>v</cmt>
<desc>Haine-Saint-Pierre Chemin n°i2 </desc>
<link href="https://chemins.be/hainesaintpierre/chemin/i2"/><trkseg>
<trkpt lat="50.466697" lon="4.214362"><time>2026-05-02T18:09:25Z</time></trkpt>
<trkpt lat="50.465666" lon="4.211937"><time>2026-05-02T18:19:25Z</time></trkpt>
<trkpt lat="50.464389" lon="4.207989"><time>2026-05-02T18:29:25Z</time></trkpt>
<trkpt lat="50.464075" lon="4.206240"><time>2026-05-02T18:39:25Z</time></trkpt>
<trkpt lat="50.464061" lon="4.204599"><time>2026-05-02T18:49:25Z</time></trkpt>
<trkpt lat="50.464170" lon="4.203494"><time>2026-05-02T18:59:25Z</time></trkpt>
</trkseg>
</trk>
<trk>
<name>hllhei3</name>
<cmt>v</cmt>
<desc>Haine-Saint-Pierre Sentier n°i3 </desc>
<link href="https://chemins.be/hainesaintpierre/sentier/i3"/><trkseg>
<trkpt lat="50.462950" lon="4.209710"><time>2026-05-02T18:09:25Z</time></trkpt>
<trkpt lat="50.463206" lon="4.209985"><time>2026-05-02T18:19:25Z</time></trkpt>
<trkpt lat="50.463329" lon="4.210375"><time>2026-05-02T18:29:25Z</time></trkpt>
</trkseg>
</trk>
<trk>
<name>hllhep1</name>
<cmt>r</cmt>
<desc>Haine-Saint-Pierre Chemin particulier n°p1 Rue des Charbonnages</desc>
<link href="https://chemins.be/hainesaintpierre/chemin/p1"/><trkseg>
<trkpt lat="50.475358" lon="4.221151"><time>2026-05-02T18:09:25Z</time></trkpt>
<trkpt lat="50.473282" lon="4.224164"><time>2026-05-02T18:19:25Z</time></trkpt>
<trkpt lat="50.472408" lon="4.225284"><time>2026-05-02T18:29:25Z</time></trkpt>
</trkseg>
</trk>
</gpx>